Regional Weather Roundup
Issued by NWS

Home | Current Version | Previous Version | Graphics & Text | Print | Product List | Glossary On
Versions: 1 2 3 4 5 6 7 8 9 10 11 12 13 14 15 16 17 18 19 20 21 22 23 24 25 26 27 28 29 30 31 32 33 34 35 36 37 38 39 40 41 42 43 44 45 46 47 48 49 50
000
ASUS43 KBIS 062110
RWRND

NORTH DAKOTA REGIONAL WEATHER ROUNDUP
NATIONAL WEATHER SERVICE BISMARCK ND
400 PM CDT MON JUL 06 2015

NOTE: "FAIR" INDICATES FEW OR NO CLOUDS BELOW 12,000 FEET WITH NO
SIGNIFICANT WEATHER AND/OR OBSTRUCTIONS TO VISIBILITY.


NDZ001>003-009>011-017-062200-
NORTHWEST NORTH DAKOTA

CITY           SKY/WX    TMP DP  RH WIND       PRES   REMARKS
WILLISTON      MOSUNNY   70  48  45 N8        30.19F
MINOT          PTSUNNY   65  47  52 N10       30.16F
MINOT AFB      SUNNY     69  51  52 N7        30.16S
$$

NDZ018>021-031>035-040>046-062200-
SOUTHWEST NORTH DAKOTA

CITY           SKY/WX    TMP DP  RH WIND       PRES   REMARKS
BISMARCK       PTSUNNY   71  51  49 NW13      30.15S HAZE
DICKINSON      PTSUNNY   72  49  44 NW14G20   30.16F
GARRISON         N/A     66  53  63 N8        30.17R
HETTINGER ARPT PTSUNNY   70  49  47 W8        30.19F
$$

NDZ004>008-012>016-024-026-027-054-062200-
NORTHEAST NORTH DAKOTA

CITY           SKY/WX    TMP DP  RH WIND       PRES   REMARKS
GRAND FORKS    PTSUNNY   66  51  58 N15       30.10S
GRND FRKS AFB  PTSUNNY   64  51  62 NE13      30.11S
DEVILS LAKE    CLOUDY    64  45  48 N13       30.13S
$$

NDZ022-023-025-028>030-036>039-047>053-062200-
SOUTHEAST NORTH DAKOTA

CITY           SKY/WX    TMP DP  RH WIND       PRES   REMARKS
FARGO          MOSUNNY   68  49  50 N16G25    30.09S
JAMESTOWN      CLOUDY    64  50  60 N13       30.13R
$$



USA.gov is the U.S. government's official web portal to all federal, state and local government web resources and services.